AirNav   TITAN Aviation Fuels
 
 1596 users online  

LS11 East Carroll Parish Hospital Heliport
Lake Providence, Louisiana, USA


FAA INFORMATION EFFECTIVE 08 SEPTEMBER 2022

Location

FAA Identifier: LS11
Lat/Long: 32-48-41.3300N 091-10-21.3800W
32-48.688833N 091-10.356333W
32.8114806,-91.1726056
(estimated)
Elevation: 95 ft. / 29 m (estimated)
From city: 1 mile N of LAKE PROVIDENCE, LA
Time zone: UTC -5 (UTC -6 during Standard Time)
Zip code: 71254

Heliport Operations

Heliport use: Private use. Permission required prior to landing
Activation date: 04/2020
Control tower: no
ARTCC: MEMPHIS CENTER
FSS: DE RIDDER FLIGHT SERVICE STATION
Attendance: 
Segmented circle: no

Nearby radio navigation aids

NDB name  Hdg/Dist  Freq  Var  ID
TALLULAH346/34.834402ETKH - -.- ....
BASTROP082/36.032903EBQP -... --.- .--.
METCALF196/38.135901WMTQ -- - --.-

Heliport Services

Runway Information

Helipad H1

Dimensions: 40 x 40 ft. / 12 x 12 m
Surface: concrete
Latitude: 32-48.688833N
Longitude: 091-10.356333W
Elevation: 95.0 ft.
Traffic pattern: leftleft

Heliport Ownership and Management from official FAA records

Ownership: Privately-owned
Owner: EAST CARROLL PARISH HOSPITAL
336 NORTH HOOD ST
LAKE PROVIDENCE, LA 71254
Phone 318-559-4023
Manager: EAST CARROLL PARISH HOSPITAL
336 NORTH HOOD ST
LAKE PROVIDENCE, LA 71254
Phone 318-559-4023
EMAIL: LBRADFORD@ECPHOSP.COM

Heliport Operational Statistics

Aircraft based on the field: 1
Helicopters: 1
    

Instrument Procedures

There are no published instrument procedures at LS11.

Some nearby airports with instrument procedures:

KTVR - Vicksburg Tallulah Regional Airport (29 nm S)
M32 - Lake Village Municipal Airport (33 nm N)
KBQP - Morehouse Memorial Airport (36 nm W)
87I - Yazoo County Airport (36 nm E)
M79 - John H Hooks Jr Memorial Airport (36 nm SW)
 
Loc | Ops | Rwys | IFR | FBO | Links
Com | Nav | Svcs | Stats | Notes
Aerial photo
No photo
 
Airport distance calculator
Flying to East Carroll Parish Hospital Heliport? Find the distance to fly.

From to LS11

Sunrise and sunset
Times for 29-Sep-2022
 Local
(UTC-5)
 Zulu
(UTC)
Morning civil twilight06:3411:34
Sunrise06:5811:58
Sunset18:5223:52
Evening civil twilight19:1600:16

Current date and time
Zulu (UTC)  29-Sep-2022 19:04:41
Local (UTC-5)  29-Sep-2022 14:04:41
 
METAR
KTVR 
29nm S 
291853Z AUTO 03008KT 10SM CLR 23/08 A3018 RMK AO2 SLP226 T02330083
KBQP 
36nm W 
291855Z AUTO 01007KT 7SM CLR 22/06 A3021 RMK AO2 T02200057
KVKS 
37nm S 
291855Z AUTO 36010G17KT 10SM CLR 22/08 A3015 RMK A01
KGLH 
42nm N 
291853Z 03014G19KT 10SM CLR 25/05 A3020 RMK AO2 SLP231 T02500050
KMLU 
47nm W 
291853Z 06011KT 10SM CLR 23/07 A3021 RMK AO2 SLP229 T02280067
KJVW 
49nm SE 
291855Z AUTO 35007KT 320V030 10SM CLR 22/07 A3016 RMK AO2
TAF
KGLH 
42nm N 
291735Z 2918/3018 04015G22KT P6SM SKC FM300000 02006KT P6SM SKC
KMLU 
47nm W 
291720Z 2918/3018 04012G18KT P6SM SKC FM300100 03007KT P6SM SKC
NOTAMs
Click for the latest NOTAMs
NOTAMs are issued by the DoD/FAA and will open in a separate window not controlled by AirNav.

 

 
 

Would you like to see your business listed on this page?

 If your business provides an interesting product or service to pilots, flight crews, aircraft, or users of the East Carroll Parish Hospital Heliport, you should consider listing it here.  To start the listing process, click on the button below
 
Add a business
 

Other Pages about East Carroll Parish Hospital Heliport

Update a link
 
Copyright © AirNav, LLC. All rights reserved. Privacy Policy  Contact